Paris Le Bourget, France

9:56 AM CET on February 23, 2018 (GMT +0100)
Le Bourget

Weather History for LFPB - November, 2012

Change the Weather History Date:

Monday, November 5, 2012

  Actual Average Record
Temperature  
Mean Temperature 46 °F -  
Max Temperature 51 °F 48 °F 65 °F (2015)
Min Temperature 42 °F 38 °F 30 °F (2006)
Degree Days  
Heating Degree Days 18    
Moisture  
Dew Point 42 °F    
Average Humidity 86    
Maximum Humidity 93    
Minimum Humidity 71    
Precipitation  
Precipitation 0.00 in 0.07 in - ()
Sea Level Pressure  
Sea Level Pressure 29.67 in    
Wind  
Wind Speed 6 mph ()    
Max Wind Speed 13 mph    
Max Gust Speed -    
Visibility 6.2 miles    
Events Rain    
Averages and records for this station are not official NWS values.
T = Trace of Precipitation, MM = Missing Value Source: Averaged Metar Reports

Daily Weather History Graph

Daily Weather History Graph

Search for Another Location

Airport or City:

Trip Planner

Search our weather history database for the weather conditions in past years. The results will help you decide how hot, cold, wet, or windy it might be!

Date:

Astronomy

Nov. 05, 2012 Rise Set
Actual Time 7:44 AM CET 5:22 PM CET
Civil Twilight 7:10 AM CET 5:56 PM CET
Nautical Twilight 6:32 AM CET 6:33 PM CET
Astronomical Twilight 5:55 AM CET 7:10 PM CET
Moon 10:44 PM CET (11/5) 12:57 PM CET (11/5)
Length of Visible Light 10h 45m
Length of Day
9h 38m
Waning Gibbous, 65% of the Moon is Illuminated
Nov 5
Waning Gibbous
Nov 7
Last Quarter
Nov 13
New
Nov 20
First Quarter
Nov 28
Full

Hourly Weather History & Observations

Time (CET) Temp. Windchill Dew Point Humidity Pressure Visibility Wind Dir Wind Speed Gust Speed Precip Events Conditions
12:00 AM 46.4 °F 42.4 °F 41.0 °F 81% 29.53 in 6.2 mi SW 8.1 mph - N/A   Partly Cloudy
12:30 AM 46.4 °F 41.9 °F 41.0 °F 81% 29.53 in 6.2 mi SW 9.2 mph - N/A   Scattered Clouds
1:00 AM 46.4 °F 42.4 °F 42.8 °F 87% 29.53 in 6.2 mi SSW 8.1 mph - N/A   Mostly Cloudy
1:30 AM 44.6 °F 41.4 °F 41.0 °F 87% 29.53 in 6.2 mi South 5.8 mph - N/A   Overcast
2:00 AM 44.6 °F 41.4 °F 41.0 °F 87% 29.53 in 6.2 mi SSE 5.8 mph - N/A   Overcast
2:30 AM 44.6 °F 41.4 °F 41.0 °F 87% 29.53 in 6.2 mi South 5.8 mph - N/A   Overcast
3:00 AM 44.6 °F 42.2 °F 42.8 °F 93% 29.56 in 6.2 mi South 4.6 mph - N/A   Overcast
3:30 AM 44.6 °F 41.4 °F 42.8 °F 93% 29.56 in 6.2 mi South 5.8 mph - N/A   Overcast
4:00 AM 44.6 °F 41.4 °F 42.8 °F 93% 29.53 in 6.2 mi South 5.8 mph - N/A   Overcast
4:30 AM 44.6 °F 40.7 °F 42.8 °F 93% 29.53 in 6.2 mi SSW 6.9 mph - N/A   Overcast
5:00 AM 44.6 °F 43.1 °F 41.0 °F 87% 29.56 in 6.2 mi Variable 3.5 mph - N/A   Mostly Cloudy
5:30 AM 44.6 °F 40.7 °F 41.0 °F 87% 29.56 in 6.2 mi SW 6.9 mph - N/A   Mostly Cloudy
6:00 AM 44.6 °F 41.4 °F 41.0 °F 87% 29.56 in 6.2 mi SW 5.8 mph - N/A   Mostly Cloudy
6:30 AM 42.8 °F 40.1 °F 41.0 °F 93% 29.56 in 6.2 mi SW 4.6 mph - N/A   Mostly Cloudy
7:00 AM 42.8 °F 38.6 °F 41.0 °F 93% 29.56 in 6.2 mi SW 6.9 mph - N/A   Mostly Cloudy
7:30 AM 42.8 °F 38.6 °F 41.0 °F 93% 29.59 in 6.2 mi SW 6.9 mph - N/A   Scattered Clouds
8:00 AM 42.8 °F 41.1 °F 41.0 °F 93% 29.59 in 6.2 mi SSW 3.5 mph - N/A   Partly Cloudy
8:30 AM 42.8 °F 41.1 °F 41.0 °F 93% 29.59 in 6.2 mi SSW 3.5 mph - N/A   Unknown
9:00 AM 46.4 °F 42.4 °F 42.8 °F 87% 29.62 in 6.2 mi SSW 8.1 mph - N/A   Partly Cloudy
9:30 AM 46.4 °F 41.9 °F 42.8 °F 87% 29.62 in 6.2 mi SW 9.2 mph - N/A   Mostly Cloudy
10:00 AM 48.2 °F - 42.8 °F 82% 29.62 in 6.2 mi WSW 9.2 mph - N/A   Overcast
10:30 AM 48.2 °F - 42.8 °F 82% 29.62 in 6.2 mi WSW 6.9 mph - N/A   Mostly Cloudy
11:00 AM 48.2 °F - 42.8 °F 82% 29.65 in 6.2 mi WSW 10.4 mph - N/A   Mostly Cloudy
11:30 AM 48.2 °F - 42.8 °F 82% 29.65 in 6.2 mi WSW 11.5 mph - N/A   Overcast
12:00 PM 50.0 °F - 42.8 °F 76% 29.65 in 6.2 mi WSW 11.5 mph - N/A   Overcast
12:30 PM 50.0 °F - 42.8 °F 76% 29.65 in 6.2 mi WSW 10.4 mph - N/A   Overcast
1:00 PM 51.8 °F - 42.8 °F 71% 29.65 in 6.2 mi WSW 11.5 mph - N/A   Overcast
1:30 PM 50.0 °F - 44.6 °F 82% 29.68 in 6.2 mi WSW 12.7 mph - N/A   Mostly Cloudy
2:00 PM 50.0 °F - 42.8 °F 76% 29.68 in 6.2 mi West 11.5 mph - N/A   Mostly Cloudy
2:30 PM 50.0 °F - 42.8 °F 76% 29.68 in 6.2 mi West 6.9 mph - N/A   Mostly Cloudy
3:00 PM 50.0 °F - 42.8 °F 76% 29.68 in 6.2 mi West 9.2 mph - N/A   Mostly Cloudy
3:30 PM 50.0 °F - 41.0 °F 71% 29.71 in 6.2 mi WNW 8.1 mph - N/A   Mostly Cloudy
4:00 PM 50.0 °F - 41.0 °F 71% 29.74 in 6.2 mi WNW 6.9 mph - N/A   Mostly Cloudy
4:30 PM 50.0 °F - 41.0 °F 71% 29.74 in 6.2 mi NW 4.6 mph - N/A   Mostly Cloudy
5:00 PM 48.2 °F - 41.0 °F 76% 29.74 in 6.2 mi West 5.8 mph - N/A Rain Light Rain
5:30 PM 46.4 °F 43.5 °F 42.8 °F 87% 29.77 in 6.2 mi WSW 5.8 mph - N/A   Unknown
6:00 PM 46.4 °F 45.2 °F 42.8 °F 87% 29.77 in 6.2 mi West 3.5 mph - N/A   Unknown
6:30 PM 46.4 °F 44.3 °F 42.8 °F 87% 29.80 in 6.2 mi West 4.6 mph - N/A   Overcast
7:00 PM 46.4 °F - 42.8 °F 87% 29.80 in 6.2 mi Variable 2.3 mph - N/A   Mostly Cloudy
7:30 PM 44.6 °F - 42.8 °F 93% 29.83 in 6.2 mi SW 2.3 mph - N/A   Overcast
8:00 PM 44.6 °F - 42.8 °F 93% 29.86 in 6.2 mi Variable 2.3 mph - N/A   Overcast
8:30 PM 44.6 °F - 41.0 °F 87% 29.86 in 6.2 mi WNW 2.3 mph - N/A   Unknown
9:00 PM 44.6 °F 42.2 °F 42.8 °F 93% 29.86 in 6.2 mi WSW 4.6 mph - N/A   Mostly Cloudy
9:30 PM 44.6 °F 41.4 °F 42.8 °F 93% 29.89 in 6.2 mi West 5.8 mph - N/A Rain Light Rain
10:00 PM 44.6 °F 43.1 °F 42.8 °F 93% 29.89 in 6.2 mi West 3.5 mph - N/A Rain Light Rain
10:30 PM 44.6 °F 43.1 °F 42.8 °F 93% 29.92 in 5.6 mi Variable 3.5 mph - N/A Rain Light Rain
11:00 PM 44.6 °F 42.2 °F 42.8 °F 93% 29.92 in 6.2 mi NNW 4.6 mph - N/A   Mostly Cloudy
11:30 PM 44.6 °F 43.1 °F 42.8 °F 93% 29.92 in 6.2 mi NNW 3.5 mph - N/A   Mostly Cloudy